Location: La Pernelle
(49.6188°N, 1.2999°W)
Time: 14:52:39
(UTC+00:00)

Meteor 2-10 Rocket - Pass Details

Date: 12 June 2021
Orbit: 734 x 885 km, 81.2° (Epoch: 05 August)

Event Time Altitude Azimuth Distance (km) Brightness Sun altitude
Rises 23:03:55 0° 348° (NNW) 3,278 8.6 -15.9°
Reaches altitude 10° 23:06:20 10° 350° (N) 2,325 7.4 -16.0°
Maximum altitude 23:11:33 78° 77° (ENE) 775 3.5 -16.2°
Enters shadow 23:14:19 27° 160° (SSE) 1,392 4.2 -16.3°
